Date String (YYYY-MM-DD hh:mm:ss) UTC,Instrument flags,Ambient pressure (hPa),Sample flow (lpm),Bypass flow (lpm),Sample temperature (°C),Ambient temperature (°C),ASC tube jacket temperature (°C),LED temperature (°C),Box temperature (°C),Sample RH (%),Span deviation,Mass concentration (μg/m³),Mass concentration (μg/m³),Mass concentration (μg/m³)
DateTimeUTC,F1_M11,P_M11,Q1_M11,Q2_M11,T1_M11,T2_M11,T3_M11,T4_M11,T5_M11,U1_M11,ZSPAN_M11,X0_M11,X2_M11,X1_M11
2022-09-20 12:00:00,,0827.7,4.99,0.00,30.3,28.4,00.0,39.2,32.0,12.9,0000.0,0004.44,0002.32,0001.90
2022-09-20 12:01:00,,0827.7,5.01,0.00,30.3,28.5,00.0,39.2,32.0,12.8,0000.0,0004.04,0002.33,0001.90
2022-09-20 12:02:00,,0827.7,5.00,0.00,30.3,28.6,00.0,39.2,32.1,12.9,0000.0,0003.28,0002.35,0001.91
2022-09-20 12:03:00,,0827.7,5.01,0.00,30.3,28.7,00.0,39.2,32.1,12.8,0000.0,0003.32,0002.41,0001.92
2022-09-20 12:04:00,,0827.7,5.01,0.00,30.3,28.7,00.0,39.1,32.1,12.9,0000.0,0003.33,0002.41,0001.92
2022-09-20 12:05:00,,0827.7,4.99,0.00,30.3,28.7,00.0,39.1,32.1,12.9,0000.0,0003.37,0002.43,0001.92
2022-09-20 12:06:00,,0827.7,5.01,0.00,30.3,28.8,00.0,39.1,32.1,12.8,0000.0,0003.38,0002.43,0001.92
2022-09-20 12:07:00,,0827.7,4.99,0.00,30.3,28.8,00.0,39.1,32.1,12.8,0000.0,0003.43,0002.46,0001.93
2022-09-20 12:08:00,,0827.8,5.01,0.00,30.3,28.8,00.0,39.2,32.1,13.0,0000.0,0003.86,0002.44,0001.94
2022-09-20 12:09:00,,0827.7,4.99,0.00,30.3,28.9,00.0,39.2,32.1,13.1,0000.0,0004.79,0002.45,0001.95
2022-09-20 12:10:00,,0827.7,5.00,0.00,30.4,28.9,00.0,39.2,32.1,13.0,0000.0,0004.87,0002.46,0001.96
2022-09-20 12:11:00,,0827.7,4.99,0.00,30.4,28.9,00.0,39.1,32.1,13.0,0000.0,0004.92,0002.43,0001.97
2022-09-20 12:12:00,,0827.8,5.00,0.00,30.4,28.9,00.0,39.2,32.1,12.9,0000.0,0004.91,0002.43,0001.98
2022-09-20 12:13:00,,0827.8,5.00,0.00,30.4,28.9,00.0,39.2,32.1,12.9,0000.0,0004.79,0002.41,0001.98
2022-09-20 12:14:00,,0827.8,5.00,0.00,30.4,28.9,00.0,39.2,32.1,13.0,0000.0,0004.65,0002.36,0001.98
2022-09-20 12:15:00,,0827.9,5.01,0.00,30.4,28.9,00.0,39.2,32.2,13.2,0000.0,0004.58,0002.33,0001.99
2022-09-20 12:16:00,,0827.9,4.99,0.00,30.4,29.0,00.0,39.2,32.2,13.3,0000.0,0004.43,0002.28,0001.98
2022-09-20 12:17:00,,0827.9,5.01,0.00,30.4,29.0,00.0,39.2,32.2,13.1,0000.0,0004.40,0002.26,0001.97
2022-09-20 12:18:00,,0827.9,4.99,0.00,30.4,29.0,00.0,39.2,32.2,13.0,0000.0,0004.35,0002.24,0001.98
2022-09-20 12:19:00,,0827.8,5.01,0.00,30.4,29.0,00.0,39.2,32.2,13.0,0000.0,0004.36,0002.24,0001.99
2022-09-20 12:20:00,,0827.9,5.00,0.00,30.4,29.0,00.0,39.2,32.2,13.0,0000.0,0003.01,0002.22,0001.99
2022-09-20 12:21:00,,0827.8,5.00,0.00,30.5,29.0,00.0,39.2,32.2,13.1,0000.0,0002.90,0002.20,0001.98
2022-09-20 12:22:00,,0827.9,5.01,0.00,30.5,29.0,00.0,39.2,32.2,13.0,0000.0,0002.85,0002.18,0001.99
2022-09-20 12:23:00,,0827.8,5.00,0.00,30.5,29.1,00.0,39.2,32.3,13.1,0000.0,0002.88,0002.19,0002.01
2022-09-20 12:24:00,,0828.1,5.00,0.00,30.5,29.1,00.0,39.2,32.3,13.1,0000.0,0002.94,0002.20,0002.01
2022-09-20 12:25:00,,0828.0,5.01,0.00,30.5,29.1,00.0,39.3,32.3,13.1,0000.0,0003.04,0002.25,0002.04
2022-09-20 12:26:00,,0827.9,4.99,0.00,30.5,29.1,00.0,39.3,32.3,13.1,0000.0,0003.08,0002.27,0002.04
2022-09-20 12:27:00,,0827.9,5.01,0.00,30.5,29.1,00.0,39.3,32.3,13.1,0000.0,0003.24,0002.30,0002.05
2022-09-20 12:28:00,,0827.9,5.00,0.00,30.5,29.1,00.0,39.3,32.3,13.0,0000.0,0004.17,0002.33,0002.06
2022-09-20 12:29:00,,0827.9,5.00,0.00,30.5,29.1,00.0,39.3,32.3,13.0,0000.0,0004.32,0002.33,0002.08
2022-09-20 12:30:00,,0827.9,5.00,0.00,30.5,29.1,00.0,39.3,32.3,13.0,0000.0,0004.33,0002.36,0002.09
2022-09-20 12:31:00,,0827.9,5.01,0.00,30.6,29.2,00.0,39.3,32.3,13.0,0000.0,0004.55,0002.40,0002.10
2022-09-20 12:32:00,,0827.9,5.00,0.00,30.6,29.1,00.0,39.3,32.3,12.9,0000.0,0004.77,0002.49,0002.10
2022-09-20 12:33:00,,0827.9,5.01,0.00,30.6,29.1,00.0,39.3,32.3,12.9,0000.0,0004.76,0002.51,0002.10
2022-09-20 12:34:00,,0827.9,5.00,0.00,30.6,29.2,00.0,39.3,32.3,13.0,0000.0,0005.07,0002.52,0002.10
2022-09-20 12:35:00,,0828.0,5.00,0.00,30.6,29.2,00.0,39.3,32.4,13.0,0000.0,0005.18,0002.55,0002.11
2022-09-20 12:36:00,,0827.9,4.99,0.00,30.6,29.2,00.0,39.3,32.4,12.9,0000.0,0005.17,0002.52,0002.10
2022-09-20 12:37:00,,0828.0,5.00,0.00,30.6,29.2,00.0,39.3,32.4,12.9,0000.0,0005.14,0002.51,0002.10
2022-09-20 12:38:00,,0828.0,5.01,0.00,30.6,29.2,00.0,39.4,32.4,13.0,0000.0,0005.06,0002.50,0002.10
2022-09-20 12:39:00,,0828.0,4.99,0.00,30.6,29.2,00.0,39.4,32.4,13.1,0000.0,0004.19,0002.50,0002.10
2022-09-20 12:40:00,,0828.0,5.01,0.00,30.6,29.2,00.0,39.4,32.4,13.2,0000.0,0004.10,0002.51,0002.07
2022-09-20 12:41:00,,0828.0,4.99,0.00,30.6,29.2,00.0,39.4,32.4,13.2,0000.0,0004.25,0002.47,0002.05
2022-09-20 12:42:00,,0828.0,5.01,0.00,30.6,29.2,00.0,39.4,32.4,13.0,0000.0,0005.24,0002.44,0002.04
2022-09-20 12:43:00,,0827.9,5.00,0.00,30.6,29.2,00.0,39.4,32.4,12.8,0000.0,0005.02,0002.38,0002.04
2022-09-20 12:44:00,,0828.0,5.00,0.00,30.6,29.2,00.0,39.4,32.4,12.8,0000.0,0005.00,0002.35,0002.05
2022-09-20 12:45:00,,0828.0,4.99,0.00,30.6,29.2,00.0,39.4,32.4,12.8,0000.0,0005.11,0002.32,0002.04
2022-09-20 12:46:00,,0828.0,5.01,0.00,30.7,29.3,00.0,39.4,32.4,12.7,0000.0,0004.89,0002.27,0002.01
2022-09-20 12:47:00,,0828.0,4.99,0.00,30.7,29.2,00.0,39.4,32.4,12.7,0000.0,0004.82,0002.27,0002.00
2022-09-20 12:48:00,,0828.0,5.01,0.00,30.7,29.2,00.0,39.4,32.4,12.8,0000.0,0004.91,0002.29,0001.99
2022-09-20 12:49:00,,0828.0,4.99,0.00,30.7,29.2,00.0,39.4,32.4,13.1,0000.0,0004.97,0002.31,0001.98
2022-09-20 12:50:00,,0828.1,5.01,0.00,30.7,29.2,00.0,39.4,32.4,13.5,0000.0,0005.06,0002.32,0001.98
2022-09-20 12:51:00,,0828.1,4.99,0.00,30.7,29.2,00.0,39.4,32.4,13.3,0000.0,0004.90,0002.29,0001.99
2022-09-20 12:52:00,,0828.1,5.00,0.00,30.7,29.2,00.0,39.4,32.4,13.2,0000.0,0004.73,0002.29,0002.00
2022-09-20 12:53:00,,0828.1,5.00,0.00,30.7,29.2,00.0,39.5,32.4,13.1,0000.0,0003.48,0002.28,0002.00
2022-09-20 12:54:00,,0828.1,5.01,0.00,30.7,29.2,00.0,39.5,32.4,12.9,0000.0,0003.49,0002.29,0001.99
2022-09-20 12:55:00,,0828.1,5.00,0.00,30.7,29.2,00.0,39.5,32.4,12.8,0000.0,0003.51,0002.29,0001.98
2022-09-20 12:56:00,,0828.1,5.00,0.00,30.7,29.2,00.0,39.5,32.4,12.9,0000.0,0003.16,0002.29,0001.99
2022-09-20 12:57:00,,0828.0,4.99,0.00,30.7,29.2,00.0,39.5,32.4,12.9,0000.0,0003.88,0002.31,0001.98
2022-09-20 12:58:00,,0828.1,5.01,0.00,30.7,29.2,00.0,39.5,32.4,12.9,0000.0,0003.88,0002.31,0001.99
2022-09-20 12:59:00,,0828.1,5.00,0.00,30.7,29.2,00.0,39.5,32.4,13.0,0000.0,0005.34,0002.31,0001.99
